[[{"header":{"parameterUnit":"m.s-1","parameterCategory":1,"la1":30.2991,"la2":30.254,"lo1":-89.0895,"lo2":-89.0444,"dy":0.0017,"dx":0.0017,"nx":28,"ny":28,"refTime":"2025-11-27T09:00:00:Z","depth":0,"parameterNumber":2,"parameterNumberName":"U-component_of_WINDS"},"data":[0,0,0,0,0,0,0,0,0,0,0,0,0,0,0,0,0,0,0,0,0,0,0,0,0,0,0,0,0,0,0,0,0,0,0,0,0,0,0,0,0,0,0,0,0,0,0,0,0,0,0,0,0,0,0,0,0,0,-0.8233,-0.8233,0,-0.8298,-0.8298,-0.8299,-0.8273,-0.8271,-0.827,-0.8268,-0.8337,-0.8341,-0.8344,0,0,0,0,0,0,0,0,0,0,0,0,0,-0.8087,-0.8089,-0.8232,-0.8233,-0.8234,-0.8298,-0.8298,-0.8299,-0.8273,-0.8271,-0.8269,-0.8267,-0.8336,-0.834,-0.8344,0,0,0,0,0,0,0,0,0,0,0,0,0,-0.8151,-0.809,-0.8232,-0.8229,-0.8229,-0.8297,-0.8299,-0.83,-0.8273,-0.8271,-0.8269,-0.8267,-0.8335,-0.834,-0.8345,-0.8422,0,0,-0.836,-0.8362,0,0,0,0,0,0,0,0,-0.8147,-0.8156,-0.8228,-0.8229,-0.8229,-0.8275,-0.8272,-0.8341,-0.8274,-0.8257,-0.8268,-0.8265,-0.8319,-0.8325,-0.8342,-0.8425,-0.8428,-0.836,-0.8363,-0.8365,-0.8367,0,0,0,0,0,0,0,-0.8143,-0.8153,-0.8258,-0.8229,-0.823,-0.8224,-0.8231,-0.8285,-0.83,-0.8258,-0.8256,-0.8264,-0.8318,-0.8337,-0.8344,-0.8429,-0.836,-0.8364,-0.8367,-0.8369,-0.8578,-0.858,0,0,0,0,0,0,-0.8138,-0.815,-0.8256,-0.826,-0.8182,-0.8229,-0.8236,-0.8263,-0.8299,-0.8302,-0.8266,-0.8263,-0.833,-0.8338,-0.8346,-0.8439,-0.8365,-0.837,-0.8373,-0.8575,-0.8578,-0.8581,0,0,0,0,0,0,-0.8135,-0.8148,-0.8254,-0.8205,-0.8218,-0.8234,-0.8264,-0.8265,-0.8284,-0.8305,-0.8308,-0.8283,-0.8329,-0.8339,-0.8403,-0.8441,-0.8372,-0.8377,-0.8572,-0.8576,-0.858,-0.8625,0,0,0,0,0,0,-0.8131,-0.8147,-0.8176,-0.8205,-0.822,-0.8309,-0.8266,-0.8268,-0.8292,-0.8289,-0.8322,-0.8325,-0.8328,-0.8396,-0.8408,-0.8447,-0.838,-0.8569,-0.8574,-0.8578,-0.8621,-0.863,-0.8639,0,0,0,0,0,-0.8126,-0.8187,-0.8178,-0.8191,-0.8257,-0.8312,-0.832,-0.8321,-0.8295,-0.8325,-0.8339,-0.8324,-0.8434,-0.8402,-0.8416,-0.8457,-0.8566,-0.8572,-0.8578,-0.8617,-0.8628,-0.8639,0,0,0,0,0,0,-0.8163,-0.8191,-0.8181,-0.8253,-0.828,-0.8307,-0.8345,-0.8334,-0.8369,-0.8365,-0.8365,-0.8373,-0.8439,-0.8454,-0.8418,-0.8533,-0.8497,-0.8505,-0.8521,-0.8533,-0.8542,-0.8538,-0.8384,0,0,0,0,0,-0.8179,-0.822,-0.8243,-0.8304,-0.8318,-0.8329,-0.8353,-0.8351,-0.838,-0.8391,-0.8409,-0.8438,-0.8479,-0.8506,-0.8545,-0.8622,-0.8629,-0.8656,-0.8665,-0.8673,-0.8681,-0.8723,-0.8736,-0.86,-0.86,-0.86,0,0,-0.8214,-0.8234,-0.826,-0.8312,-0.8333,-0.8376,-0.8339,-0.8387,-0.8419,-0.8399,-0.846,-0.8474,-0.8506,-0.8577,-0.8609,-0.8591,-0.872,-0.868,-0.8686,-0.869,-0.873,-0.8743,-0.8755,-0.8604,-0.8603,-0.8603,0,0,-0.83,-0.8319,-0.8372,-0.8393,-0.8425,-0.8431,-0.8444,-0.8472,-0.8481,-0.8542,-0.8528,-0.8566,-0.8637,-0.866,-0.8681,-0.8774,-0.8762,-0.8787,-0.8835,-0.8876,-0.8887,-0.8896,-0.8931,-0.8943,-0.8794,-0.8794,-0.8795,0,-0.8339,-0.8404,-0.8401,-0.845,-0.8474,-0.8455,-0.851,-0.8531,-0.8574,-0.8591,-0.857,-0.8658,-0.8678,-0.8754,-0.8776,-0.8794,-0.8809,-0.8784,-0.8885,-0.8895,-0.8904,-0.8937,-0.8949,-0.8797,-0.8797,-0.8797,-0.8796,0,-0.8452,-0.8496,-0.8536,-0.8577,-0.8605,-0.8656,-0.8662,-0.869,-0.8685,-0.8694,-0.8757,-0.878,-0.8823,-0.8841,-0.8837,-0.8916,-0.8905,-0.8884,-0.8848,-0.8919,-0.8951,-0.8963,-0.8802,-0.88,-0.88,-0.8799,0,0,-0.8566,-0.8603,-0.8618,-0.8636,-0.8668,-0.8704,-0.8754,-0.8795,-0.882,-0.8849,-0.8892,-0.8952,-0.8933,-0.8957,-0.8955,-0.8991,-0.9064,-0.8966,-0.8967,-0.8985,-0.9154,-0.9171,-0.9185,-0.9055,-0.9057,-0.9059,-0.9152,0,-0.8655,-0.8744,-0.8742,-0.8824,-0.8866,-0.8848,-0.8892,-0.8917,-0.8926,-0.8963,-0.8972,-0.9015,-0.8986,-0.9001,-0.9035,-0.9048,-0.9098,-0.9041,-0.9097,-0.9099,-0.9092,-0.9201,-0.9219,-0.9306,-0.9164,-0.9166,-0.9168,0,-0.8773,-0.8805,-0.8891,-0.8917,-0.8934,-0.8974,-0.9012,-0.9047,-0.9074,-0.9078,-0.9104,-0.9097,-0.9148,-0.9108,-0.918,-0.9141,-0.9163,-0.9172,-0.9176,-0.9183,-0.9139,-0.9214,-0.9333,-0.9347,-0.9186,-0.9185,-0.9183,0,-0.8849,-0.8914,-0.8974,-0.899,-0.9021,-0.905,-0.9064,-0.9089,-0.9114,-0.9146,-0.9163,-0.9201,-0.9223,-0.9253,-0.9256,-0.9226,-0.9328,-0.9289,-0.9334,-0.9334,-0.9359,-0.9358,-0.9486,-0.9369,-0.9369,-0.9369,-0.9369,0,-0.8951,-0.9005,-0.9009,-0.9046,-0.9106,-0.9103,-0.9162,-0.9174,-0.9196,-0.9236,-0.9222,-0.9259,-0.926,-0.9298,-0.93,-0.936,-0.9369,-0.9375,-0.9375,-0.9377,-0.9377,-0.9394,-0.9389,-0.9372,-0.9372,-0.9371,-0.937,0,-0.9048,-0.9052,-0.9117,-0.914,-0.9147,-0.9191,-0.9211,-0.9247,-0.9253,-0.9303,-0.9315,-0.9326,-0.937,-0.9375,-0.9427,-0.9428,-0.95,-0.9493,-0.9491,-0.9491,-0.9537,-0.9533,-0.9683,-0.9703,-0.9571,-0.9572,-0.9573,0,-0.9114,-0.9155,-0.9182,-0.9207,-0.9223,-0.9263,-0.9288,-0.9286,-0.9313,-0.9347,-0.9378,-0.9421,-0.9455,-0.9526,-0.954,-0.9579,-0.9574,-0.9623,-0.958,-0.9581,-0.9577,-0.9575,-0.958,-0.9633,-0.9634,-0.9635,-0.9636,0,-0.9231,-0.9231,-0.9267,-0.9304,-0.9334,-0.9363,-0.939,-0.9412,-0.9413,-0.9444,-0.9488,-0.9515,-0.9566,-0.9609,-0.9648,-0.9663,-0.9651,-0.9649,-0.9662,-0.9666,-0.9664,-0.9668,-0.9517,-0.9647,-0.9646,-0.9645,-0.9644,-0.9644,-0.9316,-0.9351,-0.9376,-0.9417,-0.9437,-0.9462,-0.9497,-0.9507,-0.9544,-0.9586,-0.9582,-0.9632,-0.9657,-0.9707,-0.9725,-0.9764,-0.9748,-0.9766,-0.9771,-0.9776,-0.9782,-0.9656,-0.9771,-0.977,-0.977,-0.977,-0.977,0,-0.9434,-0.9448,-0.9485,-0.9524,-0.9556,-0.9539,-0.9568,-0.9596,-0.964,-0.9664,-0.9697,-0.9749,-0.9789,-0.9805,-0.9845,-0.9873,-0.9868,-0.9884,-0.9883,-0.9887,-0.9793,-0.9779,-0.9887,-0.9887,-0.9887,-0.9887,-0.9887,-0.9887,-0.9499,-0.9559,-0.9561,-0.963,-0.9644,-0.9692,-0.9711,-0.9734,-0.9754,-0.9811,-0.9845,-0.9854,-0.9875,-0.9916,-0.9953,-0.9956,-0.9972,-0.9991,-0.9992,-0.9905,-0.9893,-0.9882,-0.9869,-0.9994,-0.9994,-1.0082,-1.0083,-1.0084]},{"header":{"parameterUnit":"m.s-1","parameterCategory":1,"la1":30.2991,"la2":30.254,"lo1":-89.0895,"lo2":-89.0444,"dy":0.0017,"dx":0.0017,"nx":28,"ny":28,"refTime":"2025-11-27T09:00:00:Z","depth":0,"parameterNumber":3,"parameterNumberName":"V-component_of_WINDS"},"data":[0,0,0,0,0,0,0,0,0,0,0,0,0,0,0,0,0,0,0,0,0,0,0,0,0,0,0,0,0,0,0,0,0,0,0,0,0,0,0,0,0,0,0,0,0,0,0,0,0,0,0,0,0,0,0,0,0,0,-8.1453,-8.1454,0,-8.161,-8.1612,-8.1613,-8.1523,-8.1518,-8.1514,-8.151,-8.1664,-8.1672,-8.168,0,0,0,0,0,0,0,0,0,0,0,0,0,-8.1067,-8.1075,-8.1452,-8.1454,-8.1456,-8.161,-8.1612,-8.1614,-8.1523,-8.1518,-8.1513,-8.1508,-8.1661,-8.1671,-8.1681,0,0,0,0,0,0,0,0,0,0,0,0,0,-8.123,-8.1077,-8.1452,-8.143,-8.143,-8.1609,-8.1612,-8.1614,-8.1525,-8.1518,-8.1511,-8.1505,-8.1658,-8.167,-8.1682,-8.1891,0,0,-8.172,-8.1725,0,0,0,0,0,0,0,0,-8.1221,-8.1245,-8.1431,-8.1432,-8.1432,-8.154,-8.1532,-8.1707,-8.1526,-8.1488,-8.151,-8.1502,-8.1628,-8.1642,-8.1686,-8.1898,-8.1905,-8.1721,-8.1729,-8.1734,-8.1737,0,0,0,0,0,0,0,-8.121,-8.1237,-8.1514,-8.1434,-8.1434,-8.141,-8.1426,-8.1565,-8.1593,-8.1491,-8.1485,-8.1505,-8.1626,-8.1674,-8.1689,-8.1907,-8.1721,-8.1732,-8.1739,-8.1744,-8.2297,-8.2304,0,0,0,0,0,0,-8.1201,-8.1228,-8.1509,-8.1519,-8.1308,-8.1422,-8.144,-8.1512,-8.1591,-8.1597,-8.1511,-8.15,-8.1657,-8.1675,-8.1694,-8.1943,-8.1734,-8.1745,-8.1752,-8.229,-8.2298,-8.2306,0,0,0,0,0,0,-8.1193,-8.1227,-8.1503,-8.1372,-8.1406,-8.1436,-8.1517,-8.1518,-8.1566,-8.1606,-8.161,-8.1555,-8.1652,-8.1677,-8.1843,-8.1947,-8.1751,-8.1762,-8.2281,-8.2292,-8.2302,-8.2444,0,0,0,0,0,0,-8.1183,-8.1225,-8.1306,-8.1375,-8.1413,-8.1652,-8.1524,-8.1526,-8.1588,-8.1577,-8.1649,-8.1654,-8.1649,-8.1825,-8.1855,-8.1961,-8.1772,-8.2272,-8.2286,-8.2299,-8.243,-8.2458,-8.2482,0,0,0,0,0,-8.1169,-8.1338,-8.1311,-8.1345,-8.1515,-8.1658,-8.168,-8.1672,-8.1597,-8.1678,-8.1704,-8.1652,-8.1931,-8.1843,-8.1876,-8.1987,-8.2265,-8.2282,-8.2298,-8.2418,-8.2453,-8.2482,0,0,0,0,0,0,-8.1278,-8.1347,-8.1317,-8.1514,-8.1581,-8.1643,-8.1744,-8.1709,-8.1797,-8.1782,-8.1766,-8.1783,-8.1957,-8.1988,-8.1889,-8.2192,-8.2086,-8.211,-8.2166,-8.2199,-8.2225,-8.2214,-8.1782,0,0,0,0,0,-8.1325,-8.1438,-8.149,-8.1659,-8.1694,-8.1714,-8.1776,-8.1764,-8.1832,-8.186,-8.1897,-8.1964,-8.2066,-8.2134,-8.2231,-8.2434,-8.2447,-8.2526,-8.2552,-8.2573,-8.2594,-8.2704,-8.2739,-8.236,-8.236,-8.236,0,0,-8.1423,-8.1475,-8.1546,-8.1682,-8.1733,-8.1848,-8.1738,-8.1864,-8.1949,-8.1878,-8.2038,-8.2068,-8.2141,-8.2327,-8.241,-8.2358,-8.2702,-8.2594,-8.2611,-8.2621,-8.2724,-8.276,-8.2792,-8.2371,-8.2369,-8.2368,0,0,-8.1661,-8.1712,-8.1858,-8.1912,-8.1991,-8.2003,-8.2038,-8.2105,-8.2123,-8.2284,-8.2234,-8.2332,-8.251,-8.2564,-8.2615,-8.2873,-8.2829,-8.2905,-8.3042,-8.3148,-8.3178,-8.3205,-8.3297,-8.333,-8.2925,-8.2926,-8.2926,0,-8.1773,-8.1946,-8.1936,-8.2068,-8.2128,-8.2072,-8.2218,-8.227,-8.2376,-8.2418,-8.2359,-8.258,-8.2625,-8.2823,-8.2886,-8.2929,-8.2967,-8.2897,-8.3175,-8.3202,-8.3226,-8.3314,-8.3348,-8.2934,-8.2933,-8.2932,-8.2932,0,-8.2079,-8.22,-8.2308,-8.2415,-8.2487,-8.2625,-8.2635,-8.2709,-8.2691,-8.2709,-8.2872,-8.2924,-8.3031,-8.3076,-8.3059,-8.3272,-8.3237,-8.3177,-8.307,-8.3271,-8.3353,-8.3387,-8.2947,-8.2944,-8.2941,-8.2939,0,0,-8.239,-8.249,-8.253,-8.2578,-8.2661,-8.2754,-8.2888,-8.2994,-8.3058,-8.3133,-8.3244,-8.3396,-8.3341,-8.3399,-8.3387,-8.3481,-8.3682,-8.3409,-8.341,-8.3458,-8.3919,-8.3964,-8.4004,-8.3653,-8.3659,-8.3664,-8.3913,0,-8.2633,-8.2872,-8.2867,-8.3087,-8.3198,-8.3146,-8.3263,-8.3326,-8.3346,-8.3441,-8.3461,-8.357,-8.3489,-8.3523,-8.3614,-8.3639,-8.3774,-8.362,-8.3755,-8.376,-8.374,-8.4047,-8.4095,-8.4327,-8.3945,-8.3951,-8.3954,0,-8.2949,-8.3037,-8.327,-8.3337,-8.3383,-8.3489,-8.3586,-8.3679,-8.3748,-8.3755,-8.3821,-8.3794,-8.3928,-8.3818,-8.4002,-8.3898,-8.3952,-8.3973,-8.3981,-8.3994,-8.387,-8.4068,-8.4401,-8.4436,-8.4005,-8.4001,-8.3997,0,-8.3153,-8.3329,-8.3491,-8.3534,-8.3616,-8.3692,-8.3729,-8.3792,-8.3857,-8.394,-8.3982,-8.4079,-8.4133,-8.4208,-8.4207,-8.4127,-8.4394,-8.4283,-8.4403,-8.4403,-8.4462,-8.4458,-8.4809,-8.4497,-8.4496,-8.4496,-8.4495,0,-8.3426,-8.357,-8.3584,-8.3684,-8.3843,-8.3836,-8.3993,-8.4022,-8.4079,-8.4182,-8.4141,-8.4238,-8.4232,-8.4329,-8.4329,-8.4482,-8.4506,-8.4515,-8.4513,-8.4519,-8.4518,-8.4555,-8.4539,-8.4505,-8.4503,-8.4501,-8.4499,0,-8.3681,-8.3697,-8.387,-8.3934,-8.3954,-8.4069,-8.4123,-8.4216,-8.4232,-8.4363,-8.4393,-8.4418,-8.4531,-8.4538,-8.4667,-8.4667,-8.4853,-8.4833,-8.4831,-8.4827,-8.4947,-8.4936,-8.5334,-8.5386,-8.504,-8.5043,-8.5046,0,-8.3854,-8.3965,-8.4042,-8.4109,-8.4152,-8.426,-8.4326,-8.4322,-8.4392,-8.4479,-8.4562,-8.4672,-8.4759,-8.4941,-8.4969,-8.5068,-8.505,-8.5183,-8.5065,-8.5067,-8.5053,-8.5047,-8.5057,-8.5206,-8.521,-8.5213,-8.5216,0,-8.4161,-8.4163,-8.4261,-8.4362,-8.4443,-8.4522,-8.4595,-8.4651,-8.4656,-8.4736,-8.4852,-8.492,-8.5053,-8.5162,-8.5259,-8.5294,-8.5256,-8.5253,-8.5286,-8.5293,-8.5288,-8.5293,-8.4894,-8.5244,-8.5241,-8.5239,-8.5237,-8.5236,-8.438,-8.4476,-8.4546,-8.4656,-8.4711,-8.4781,-8.4872,-8.4901,-8.4998,-8.5109,-8.5099,-8.5228,-8.5293,-8.5419,-8.5462,-8.5561,-8.5516,-8.5564,-8.5576,-8.5588,-8.5601,-8.5272,-8.5579,-8.5578,-8.5577,-8.5576,-8.5576,0,-8.4685,-8.4727,-8.4829,-8.4934,-8.5021,-8.4979,-8.5058,-8.5132,-8.5247,-8.5312,-8.54,-8.5533,-8.5638,-8.5675,-8.5777,-8.5849,-8.5834,-8.5876,-8.5871,-8.588,-8.5636,-8.5597,-8.5887,-8.5887,-8.5887,-8.5887,-8.5887,-8.5886,-8.4853,-8.5013,-8.5024,-8.521,-8.525,-8.5378,-8.5427,-8.549,-8.5542,-8.5694,-8.5782,-8.5806,-8.586,-8.5965,-8.606,-8.6067,-8.6107,-8.6156,-8.6157,-8.5928,-8.5897,-8.5867,-8.5831,-8.6165,-8.6165,-8.6393,-8.6395,-8.6397]}]]